Location: G??boka
(50.1318°N, 20.1512°E)
Time: 13:25:18
(UTC+00:00)

Daily predictions for brighter satellites

Satellite Brightness Start Highest point End
(mag) Time Altitude Azimuth Time Altitude Azimuth Time Altitude Azimuth
Meteor 1-11 Rocket 3.9 17:11:52 10° S 17:17:44 66° E 17:23:32 10° NNE
Cosmos 1470 Rocket 4.2 17:17:46 10° SSE 17:21:52 36° E 17:25:58 10° NNE
Okean O Rocket 1.8 17:20:40 10° SE 17:24:58 51° ENE 17:29:15 10° N
Cosmos 1954 Rocket 4.4 17:20:33 10° NNW 17:25:34 44° ENE 17:30:34 10° SE
USA 229 DEB 3.7 17:19:37 10° SW 17:25:54 89° WNW 17:32:51 10° NE
USA 229 3.7 17:19:43 10° SW 17:26:01 90° NE 17:32:57 10° NE
Cosmos 1140 Rocket 3.8 17:24:03 10° NNW 17:29:15 74° WSW 17:34:26 10° SSE
Landsat 7 4.3 17:29:03 10° SE 17:33:25 39° ENE 17:37:48 10° N
Cosmos 2333 4.3 17:27:58 10° NNW 17:33:48 77° ENE 17:39:35 10° SSE
IGS 5A 3.5 17:31:16 10° SSE 17:35:18 58° ENE 17:39:23 10° N
Cosmos 1727 Rocket 4.1 17:31:12 10° S 17:37:24 61° E 17:43:35 10° NNE
Cosmos 2322 Rocket 3.2 17:32:34 10° NW 17:38:05 51° WSW 17:43:34 10° S
SL-8 R/B 4.1 17:34:15 10° W 17:38:57 59° SSW 17:43:34 11° ESE
Cosmos 2237 Rocket 3.6 17:35:15 10° NNW 17:39:44 23° NE 17:43:56 11° E
Cosmos 2084 Rocket 3.3 17:37:02 10° NW 17:40:49 76° SW 17:44:40 10° SE
YAOGAN 1 3.2 17:36:41 10° S 17:40:57 61° WSW 17:45:15 10° NNW
CSL-04 Rocket 4.1 17:37:37 10° SE 17:42:53 46° ENE 17:48:10 10° N
USA 306 3.4 17:40:10 10° WNW 17:43:48 47° SW 17:47:25 10° SE
ISS -3.5 17:41:01 10° SW 17:44:16 51° SSE 17:47:10 13° E
In-Cosmos 22 4.3 17:38:55 10° N 17:44:30 63° ENE 17:50:09 10° SSE
TIMED 4.5 17:41:01 10° S 17:45:19 62° ESE 17:49:39 10° NNE
SL-27 R/B 3.5 17:42:55 10° SSE 17:45:30 21° ESE 17:48:05 10° NE
Cosmos 407 Rocket 4.0 17:41:00 10° NNW 17:46:16 65° WSW 17:51:32 10° S
Cosmos 1818 3.7 17:41:05 10° NW 17:46:31 63° NE 17:51:47 11° SE
Cosmos 1842 3.3 17:44:00 10° NNW 17:47:51 83° W 17:51:39 10° S
Cosmos 1975 3.6 17:45:21 10° SSE 17:48:45 28° E 17:52:11 10° NNE
Cosmos 2322 3.8 17:45:47 10° NNW 17:51:26 63° ENE 17:57:03 10° SE
KORONAS-FOTON 3.8 17:48:47 10° N 17:52:32 56° ENE 17:56:17 10° SSE
NOSS 3-1 (A) 4.3 17:47:21 10° WSW 17:52:34 46° NNW 17:58:53 10° NE
CZ-4C R/B 4.1 17:48:02 10° NW 17:53:07 26° N 17:59:07 10° ENE
CZ-4B R/B 3.7 17:47:41 10° S 17:53:20 70° WSW 17:59:00 10° NNW
Cosmos 1626 1.9 17:49:47 10° N 17:53:21 65° ENE 17:56:53 10° SSE
SJ-6B 2.8 17:50:31 10° SSE 17:54:26 66° ENE 17:58:18 10° N
Cosmos 1371 Rocket 4.1 17:51:24 10° S 17:56:32 54° ESE 18:01:39 10° NNE
Cosmos 2333 Rocket 2.5 17:51:11 10° NNW 17:56:57 72° WSW 18:02:41 10° SSE
USA 186 1.7 17:54:03 10° SSE 17:57:04 57° ENE 18:00:08 10° N
NOSS 3-2 (A) 4.1 17:51:16 10° NW 17:58:24 65° NE 18:05:45 14° ESE
GEOS 3 Rocket 3.9 17:56:53 10° NE 18:02:17 77° NW 18:07:40 10° SW
ATLAS 3B R/B 4.3 17:57:32 10° WNW 18:03:47 32° NNW 18:10:23 10° NE
Cosmos 1536 4.4 18:01:32 10° SW 18:05:13 38° WNW 18:08:55 10° N
Cosmos 2056 Rocket 3.4 18:00:17 10° S 18:05:19 59° ESE 18:10:22 10° NNE
NOSS 3-2 (C) 4.4 17:59:42 10° NW 18:06:34 50° NE 18:12:45 17° ESE
MINOTAUR 4 R/B 4.1 18:04:15 10° NNE 18:07:41 77° WNW 18:11:05 10° SSW
Cosmos 2219 Rocket 2.3 18:02:01 10° NNW 18:07:45 85° WSW 18:13:26 10° SSE
Meteor 2-9 Rocket 4.1 18:02:23 10° S 18:07:55 85° E 18:13:22 10° NNE
COSMOS 2428 2.8 18:02:30 10° NNW 18:08:13 65° ENE 18:13:07 14° SE
JB-3 4.5 18:04:58 10° N 18:09:00 80° WNW 18:13:03 10° SSW
CZ-4 R/B 2.3 18:05:28 10° S 18:09:09 47° W 18:12:55 10° NNW
Cosmos 1805 4.3 18:08:32 21° ESE 18:09:28 24° E 18:12:34 10° NE
Cosmos 1833 4.2 18:04:11 10° SSW 18:09:47 90° N 18:15:27 10° NNE
Cosmos 1459 Rocket 3.9 18:03:47 10° N 18:09:52 80° E 18:15:56 10° SSE
Cosmos 1707 2.8 18:06:22 10° NNW 18:10:12 79° W 18:13:59 10° S
Feng Yun 1-1 Rocket 4.5 18:04:56 10° S 18:10:25 73° WSW 18:16:06 10° NNW
SL-14 R/B 4.2 18:07:06 10° N 18:10:30 28° ENE 18:11:48 23° ESE
Cosmos 1725 Rocket 4.1 18:06:22 10° N 18:12:27 56° ENE 18:18:30 10° SSE
Cosmos 1933 Rocket 3.4 18:09:02 10° S 18:13:19 67° E 18:17:38 10° NNE
Timation 1 Rocket 4.5 18:07:44 10° S 18:13:31 52° ESE 18:19:21 10° NE
SPOT 1/Viking Rocket 3.8 18:09:33 13° SE 18:13:57 49° ENE 18:18:58 10° N
USA 307 3.8 18:11:58 10° WNW 18:15:30 36° SW 18:18:12 15° SSE
USA 305 3.7 18:12:07 10° WNW 18:15:40 38° SW 18:18:19 16° SSE
CSL-04 Debris 4.1 18:11:13 10° SSE 18:16:37 88° E 18:22:06 10° NNW
CENTAUR R/B 3.2 18:10:09 10° NW 18:18:12 80° NE 18:25:32 17° SE
Geosat 3.9 18:14:08 14° SE 18:18:27 78° ENE 18:23:31 10° NNW
USA 281 4.0 18:12:32 10° NNE 18:18:56 56° NW 18:25:18 10° SW
Cosmos 1624 Rocket 3.9 18:13:56 10° SSW 18:19:13 77° ESE 18:24:34 10° NNE
USA 238 DEB 4.3 18:12:54 10° NW 18:19:48 48° NNE 18:24:49 21° E
USA 238 4.3 18:13:00 10° NW 18:19:53 48° NNE 18:24:54 21° E
Resurs 01 Rocket 2.0 18:17:19 21° SE 18:19:56 44° ENE 18:24:08 10° N
Cosmos 1850 Rocket 4.4 18:15:05 10° NNW 18:20:13 45° ENE 18:23:11 23° ESE
Okean 1-7 3.3 18:16:48 10° NNW 18:21:10 70° W 18:25:30 10° S
Spot 1 4.4 18:16:46 10° NNE 18:21:39 87° WNW 18:26:42 10° SSW
Cosmos 1869 Rocket 3.8 18:18:21 10° SSE 18:22:27 44° E 18:26:35 10° NNE
Cosmos 1802 Rocket 3.9 18:16:43 10° N 18:22:59 81° E 18:29:18 10° SSE
Cosmos 2297 Rocket 4.0 18:27:17 13° ENE 18:27:17 13° ENE 18:28:09 10° ENE
Okean 2 3.6 18:21:11 10° N 18:25:08 47° ENE 18:26:57 27° SE
Cosmos 1420 Rocket 3.9 18:22:54 10° SSW 18:28:08 85° ESE 18:33:23 10° NNE
Okean 3 4.2 18:26:42 10° NNW 18:30:48 54° W 18:34:55 10° S
IRS-1C Rocket 4.0 18:27:49 14° SSE 18:32:22 74° ENE 18:37:40 10° NNW
H-2A R/B 3.8 18:31:53 24° ENE 18:32:28 25° ENE 18:36:05 10° N
Iridium 4 Rocket 2.8 18:30:26 10° N 18:34:41 72° E 18:37:44 18° SSE
Cosmos 1674 3.5 18:31:32 10° NNW 18:35:09 49° W 18:38:44 10° S
SAR-Lupe-3 4.5 18:33:17 22° SSE 18:35:31 86° WSW 18:39:07 10° NNW
Cosmos 1900 4.4 18:32:08 10° SSW 18:36:56 52° ESE 18:41:43 10° NE
Cosmos 2360 Rocket 4.2 18:32:48 10° NW 18:37:26 27° WSW 18:42:03 10° SSW
Cosmos 2098 Rocket 3.6 18:33:59 10° S 18:39:03 76° E 18:45:19 10° NNE
Cosmos 1452 Rocket 3.8 18:38:18 10° S 18:43:14 42° ESE 18:48:12 10° NE
Cosmos 2016 Rocket 3.9 18:38:27 10° N 18:44:35 86° W 18:50:42 10° S
Resurs 1-3 4.4 18:42:03 10° S 18:46:18 51° W 18:50:36 10° NNW
SL-16 R/B 3.5 18:42:17 10° NNW 18:46:56 25° NE 18:48:40 22° ENE
Cosmos 2123 Rocket 3.9 18:40:43 10° S 18:46:59 84° E 18:53:22 10° N
Okean-O 2.9 18:43:42 14° S 18:47:32 68° WSW 18:51:58 10° NNW
BREEZE-M DEB (TANK) 4.4 18:43:12 10° W 18:47:32 86° S 18:59:33 17° E
BREEZE M DEB (TANK) 2.8 18:51:00 10° W 18:52:43 42° WSW 18:52:43 42° WSW
Landsat 5 3.1 18:51:56 10° NNE 18:55:46 75° ESE 18:57:16 35° S
USA 215 3.9 18:50:16 13° ENE 18:55:52 51° N 19:02:09 10° W
Cosmos 1741 Rocket 3.9 18:51:51 10° NNW 18:57:07 79° ENE 18:59:05 39° SE
Cosmos 2221 Rocket 4.1 18:55:12 10° N 18:59:12 40° ENE 18:59:12 40° ENE
Cosmos 1733 3.2 18:58:04 16° SSW 19:00:57 75° WNW 19:04:45 10° N
Cosmos 2242 Rocket 4.2 18:56:51 10° NNW 19:01:22 58° W 19:04:48 17° S
Okean O Rocket 4.1 18:58:14 10° SW 19:01:34 21° W 19:04:54 10° NW
Cosmos 1674 Rocket 4.4 19:00:03 10° N 19:03:29 35° NE 19:03:29 35° NE
ATLAS CENTAUR R/B 4.3 18:49:06 10° SSW 19:05:21 65° SE 19:12:39 12° ENE
Cosmos 1733 Rocket 3.9 19:09:05 34° NE 19:09:05 34° NE 19:11:52 10° NNE
Cosmos 1726 2.0 19:08:38 76° NW 19:08:38 76° NW 19:12:04 10° N
Cosmos 192 4.2 19:04:25 10° SSW 19:09:21 79° ESE 19:14:20 10° NNE
ADEOS Rocket 3.7 19:11:23 36° E 19:12:42 40° ENE 19:19:02 10° N
NOSS 0 Rocket 4.0 19:06:42 10° NW 19:12:54 72° WSW 19:15:43 34° SSE
CARTOSAT-1 3.4 19:12:34 65° SSE 19:13:11 90° ENE 19:17:30 10° NNW
Cosmos 968 Rocket 3.6 19:11:42 10° NNW 19:16:48 54° ENE 19:17:12 53° ENE
Cosmos 1378 Rocket 4.0 19:13:06 10° N 19:16:45 46° NE 19:16:45 46° NE
Terra 2.8 19:18:08 32° NE 19:18:08 32° NE 19:21:44 10° N
SPOT 5 3.1 19:18:20 47° NE 19:18:20 47° NE 19:22:35 10° N
SL-27 R/B 4.4 19:16:59 10° WSW 19:19:53 28° WNW 19:22:48 10° N
ISS -2.6 19:17:42 10° W 19:20:08 43° WNW 19:20:08 43° WNW
Ariane Rocket 2.9 19:22:38 65° ESE 19:23:09 71° ENE 19:28:14 10° N
IRS-1A Rocket 4.4 19:21:15 38° S 19:23:42 82° WSW 19:29:37 10° NNW
Cosmos 2237 Rocket 2.1 19:18:52 10° NNW 19:24:34 89° WSW 19:25:47 57° SSE
SPOT 3 Rocket 3.6 19:25:00 57° ENE 19:25:10 57° ENE 19:30:19 10° N
ERS-1 Rocket 3.3 19:26:33 47° ENE 19:26:33 47° ENE 19:31:04 10° N
Cosmos 1513 Rocket 4.4 19:25:44 10° N 19:31:45 60° ENE 19:32:18 58° E
Meteor 1-24 Rocket 4.1 19:26:56 10° N 19:32:39 49° ENE 19:32:40 49° ENE
Spot 2 Rocket 3.7 19:34:35 54° NE 19:34:35 54° NE 19:39:15 10° N
CZ-4C R/B 3.4 19:36:53 10° NW 19:43:15 45° NNE 19:45:25 37° ENE
Cosmos 1980 4.0 19:39:31 10° NW 19:45:07 61° WSW 19:46:05 53° SSW
Meteor 2-5 Rocket 3.7 19:41:43 10° N 19:47:22 67° ENE 19:47:22 67° ENE
Cosmos 2034 Rocket 4.3 19:42:25 10° N 19:48:00 47° ENE 19:48:00 47° ENE
Resurs 01 Rocket 3.7 19:54:50 19° SW 19:56:35 24° W 20:00:12 10° NW
ATLAS 3B R/B 4.3 19:50:23 10° NW 19:56:44 30° NNE 20:01:00 19° ENE
SJ 16-02 3.2 19:53:55 10° N 19:56:03 23° NNE 19:56:03 23° NNE
NOSS 3-2 (C) 4.3 19:50:34 10° NW 19:57:55 64° SW 20:00:13 48° S
Meteor 2-15 4.3 19:55:09 10° N 20:01:22 87° E 20:01:28 86° SE
Meteor 2-8 Rocket 4.3 19:55:43 10° N 20:01:49 81° ENE 20:01:49 81° ENE
Cosmos 1072 Rocket 4.4 19:58:08 10° N 20:04:36 90° W 20:04:57 81° S
Meteor 2-15 Rocket 4.4 19:59:31 10° N 20:05:19 71° NE 20:05:19 71° NE
H-2A R/B 3.8 20:08:14 41° WNW 20:08:14 41° WNW 20:11:47 10° NNW
Cosmos 2297 Rocket 2.6 20:08:56 56° NNE 20:08:56 56° NNE 20:13:23 10° NNE
CENTAUR R/B 4.3 20:01:15 10° NW 20:08:39 36° WSW 20:12:44 25° SSW
USA 238 DEB 4.0 20:03:56 10° NW 20:11:07 63° SW 20:12:16 57° SSW
USA 238 4.0 20:04:02 10° NW 20:11:14 64° SW 20:12:21 57° SSW
BREEZE-M DEB (TANK) 3.9 20:17:31 10° WNW 20:21:44 45° W 20:21:44 45° W
Cosmos 2227 Rocket 3.7 20:26:17 26° NNE 20:26:17 26° NNE 20:28:39 10° NNE
SL-16 R/B 2.7 20:26:01 10° NNW 20:30:33 57° NW 20:30:33 57° NW
Cosmos 1464 Rocket 4.3 20:28:55 10° NNW 20:35:08 61° W 20:35:08 61° W
USA 215 3.6 20:37:36 53° NE 20:38:21 56° NNE 20:44:43 10° WNW
Terra 3.7 20:56:53 27° NW 20:56:53 27° NW 20:59:28 10° NNW
ADEOS Rocket 3.8 20:58:19 47° W 20:58:19 47° W 21:04:41 10° NNW
Cosmos 2237 Rocket 4.4 21:04:26 10° WNW 21:07:37 16° W 21:07:37 16° W
ATLAS CENTAUR R/B 3.9 21:08:35 10° WSW 21:20:56 61° NNW 21:22:22 52° NNE
CZ-4C R/B 3.4 21:25:14 10° NW 21:30:34 55° WNW 21:30:34 55° WNW
SJ 16-02 4.3 21:32:22 10° NW 21:32:57 13° NW 21:32:57 13° NW
Cosmos 2344 4.1 21:29:56 10° NW 21:38:09 66° NE 21:38:55 64° ENE
ATLAS 3B R/B 3.5 21:41:43 10° NW 21:48:14 53° NNE 21:48:14 53° NNE
Cosmos 2297 Rocket 4.4 21:50:33 18° WNW 21:52:38 21° NW 21:56:55 10° NNE
Cosmos 2227 Rocket 4.2 22:08:01 24° NW 22:08:01 24° NW 22:12:17 10° NNE
ATLAS 2AS CENTAUR R/B 3.8 22:53:28 40° NE 22:53:28 40° NE 22:57:46 10° NE
Cosmos 2263 Rocket 4.2 23:04:25 23° N 23:04:25 23° N 23:07:13 10° NNE
SL-16 R/B 4.0 23:26:59 32° NE 23:26:59 32° NE 23:32:02 10° N
ATLAS 3B R/B 4.4 23:32:39 10° NW 23:35:28 24° WNW 23:35:28 24° WNW
Cosmos 2082 Rocket 4.0 23:43:02 10° NNW 23:46:10 28° N 23:46:10 28° N
Resurs 1-4 Rocket 4.1 23:47:57 10° NNE 23:50:25 24° NE 23:50:25 24° NE
